Weather History for Marrakech, Morocco

Change the Weather History Date:

Thursday, July 4, 2013

  Actual Average Record
Temperature  
Mean Temperature 82 °F -  
Max Temperature 98 °F 96 °F 106 °F (2012)
Min Temperature 67 °F 66 °F 48 °F (2006)
Cooling Degree Days 18    
Growing Degree Days 32 (Base 50)    
Moisture  
Dew Point 59 °F    
Average Humidity 47    
Maximum Humidity 78    
Minimum Humidity 16    
Precipitation  
Precipitation 0.00 in 0.00 in - ()
Sea Level Pressure  
Sea Level Pressure 29.98 in    
Wind  
Wind Speed 5 mph ()    
Max Wind Speed 10 mph    
Max Gust Speed 17 mph    
Visibility 6.0 miles    
Events      
Averages and records for this station are not official NWS values.
T = Trace of Precipitation, MM = Missing Value Source: Averaged Metar Reports

Daily Weather History Graph

Daily Weather History Graph

Search for Another Location

Airport:

Trip Planner

Search our weather history database for the weather conditions in past years. The results will help you decide how hot, cold, wet, or windy it might be!

Date:

Astronomy

Jul. 04, 2013 Rise Set
Actual Time 6:32 AM WEST 8:41 PM WEST
Civil Twilight 6:04 AM WEST 9:08 PM WEST
Nautical Twilight 5:30 AM WEST 9:42 PM WEST
Astronomical Twilight 4:53 AM WEST 10:19 PM WEST
Moon 3:34 AM WEST (7/4) 5:37 PM WEST (7/4)
Length of Visible Light 15h 04m
Length of Day
14h 09m
Waning Crescent, 13% of the Moon is Illuminated
Jul 4
Waning Crescent
Jul 8
New
Jul 16
First Quarter
Jul 22
Full
Jul 29
Last Quarter

Hourly Weather History & Observations

Time (WEST) Temp. Heat Index Dew Point Humidity Pressure Visibility Wind Dir Wind Speed Gust Speed Precip Events Conditions
12:00 AM 78.8 °F - 60.8 °F 54% 30.06 in - West 6.9 mph - N/A   Clear
12:30 AM 77.0 °F - 60.8 °F 57% 30.06 in - WSW 6.9 mph - N/A   Clear
1:00 AM 76 °F - 60 °F 49% 29.98 in 6 mi WSW 5.8 mph - -  
1:00 AM 75.2 °F - 60.8 °F 61% 30.04 in - WSW 5.8 mph - N/A   Clear
1:30 AM 73.4 °F - 60.8 °F 65% 30.04 in - WSW 8.1 mph - N/A   Clear
2:00 AM 73.4 °F - 60.8 °F 65% 30.04 in - WSW 5.8 mph - N/A   Clear
2:30 AM 73.4 °F - 60.8 °F 65% 30.04 in - WSW 4.6 mph - N/A   Clear
3:00 AM 71.6 °F - 60.8 °F 69% 30.01 in - WSW 4.6 mph - N/A   Clear
3:30 AM 71.6 °F - 60.8 °F 69% 30.01 in - SW 4.6 mph - N/A   Clear
4:00 AM 70 °F - 60 °F 63% 29.94 in 6 mi West 3.5 mph - -  
4:00 AM 69.8 °F - 60.8 °F 73% 30.01 in - West 3.5 mph - N/A   Clear
4:30 AM 69.8 °F - 60.8 °F 73% 29.98 in - West 3.5 mph - N/A   Clear
5:00 AM 69.8 °F - 60.8 °F 73% 29.98 in - WSW 3.5 mph - N/A   Clear
5:30 AM 69.8 °F - 60.8 °F 73% 29.98 in - WSW 3.5 mph - N/A   Clear
6:00 AM 68.0 °F - 60.8 °F 78% 29.98 in - West 3.5 mph - N/A   Clear
6:30 AM 68.0 °F - 60.8 °F 78% 29.98 in - WSW 6.9 mph - N/A   Clear
6:46 AM 68 °F - 61 °F 73% 29.95 in 6 mi West 4.6 mph - -  
7:00 AM 68.0 °F - 60.8 °F 78% 29.98 in - West 4.6 mph - N/A   Clear
7:30 AM 68.0 °F - 60.8 °F 78% 30.01 in - WSW 4.6 mph - N/A   Clear
8:00 AM 69.8 °F - 60.8 °F 73% 30.01 in - WSW 5.8 mph - N/A   Clear
8:30 AM 69.8 °F - 62.6 °F 78% 30.01 in - WSW 4.6 mph - N/A   Clear
9:00 AM 73.4 °F - 62.6 °F 69% 30.01 in - West 3.5 mph - N/A   Clear
9:30 AM 75.2 °F - 62.6 °F 65% 30.01 in - West 4.6 mph - N/A   Clear
10:00 AM 78 °F - 63 °F 50% 29.94 in 6 mi NW 4.6 mph - -  
10:00 AM 77.0 °F - 62.6 °F 61% 30.01 in - WNW 4.6 mph - N/A   Clear
10:30 AM 78.8 °F - 60.8 °F 54% 30.01 in - WNW 4.6 mph - N/A   Clear
11:00 AM 82.4 °F 83.4 °F 62.6 °F 51% 30.01 in - NW 5.8 mph - N/A   Clear
11:30 AM 84.2 °F 85.0 °F 62.6 °F 48% 30.01 in - WNW 4.6 mph - N/A   Clear
12:00 PM 86.0 °F 86.6 °F 62.6 °F 45% 30.01 in - NW 6.9 mph - N/A   Clear
12:30 PM 87.8 °F 87.6 °F 60.8 °F 40% 30.01 in - WNW 6.9 mph - N/A   Clear
1:00 PM 90 °F - 59 °F 26% 29.89 in 6 mi NW 9.2 mph - -  
1:00 PM 89.6 °F 88.9 °F 59.0 °F 36% 30.01 in - NW 9.2 mph - N/A   Clear
1:30 PM 91.4 °F 89.4 °F 55.4 °F 29% 30.01 in - WNW 9.2 mph - N/A   Clear
2:00 PM 93.2 °F 91.3 °F 55.4 °F 28% 29.98 in - West 8.1 mph - N/A   Clear
2:30 PM 93.2 °F 91.3 °F 55.4 °F 28% 29.98 in - West 6.9 mph - N/A   Clear
3:00 PM 95.0 °F 93.0 °F 55.4 °F 26% 29.98 in - WNW 5.8 mph 17.3 mph N/A   Clear
3:30 PM 96.8 °F 95.8 °F 57.2 °F 27% 29.95 in - WNW 5.8 mph - N/A   Clear
4:00 PM 97 °F - 55 °F 16% 29.83 in 6 mi WSW 4.6 mph - -  
4:00 PM 96.8 °F 95.1 °F 55.4 °F 25% 29.95 in - Variable 4.6 mph - N/A   Clear
4:30 PM 96.8 °F 95.1 °F 55.4 °F 25% 29.95 in - NNE 4.6 mph - N/A   Clear
5:00 PM 98.6 °F 97.2 °F 55.4 °F 24% 29.95 in - Variable 4.6 mph - N/A   Clear
5:30 PM 98.6 °F 97.2 °F 55.4 °F 24% 29.95 in - North 8.1 mph - N/A   Clear
6:00 PM 98.6 °F 97.2 °F 55.4 °F 24% 29.95 in - Variable 5.8 mph - N/A   Clear
6:30 PM 96.8 °F 95.1 °F 55.4 °F 25% 29.95 in - North 8.1 mph - N/A   Clear
7:00 PM 97 °F - 55 °F 16% 29.81 in 6 mi NNE 5.8 mph - -  
7:00 PM 96.8 °F 95.1 °F 55.4 °F 25% 29.92 in - NNE 5.8 mph - N/A   Clear
7:30 PM 96.8 °F 95.1 °F 55.4 °F 25% 29.95 in - NNE 5.8 mph - N/A   Clear
8:00 PM 95.0 °F 93.7 °F 57.2 °F 28% 29.95 in - NNW 9.2 mph - N/A   Clear
8:30 PM 93.2 °F 91.9 °F 57.2 °F 30% 29.95 in - NNW 10.4 mph - N/A   Clear
9:00 PM 91.4 °F 89.9 °F 57.2 °F 31% 29.95 in - NNW 10.4 mph - N/A   Clear
9:30 PM 89.6 °F 88.1 °F 57.2 °F 33% 29.98 in - NW 9.2 mph - N/A   Clear
10:00 PM 87 °F - 55 °F 24% 29.88 in 6 mi WNW 8.1 mph - -  
10:00 PM 87.8 °F 86.1 °F 55.4 °F 33% 29.98 in - WNW 8.1 mph - N/A   Clear
10:30 PM 86.0 °F 84.5 °F 55.4 °F 35% 30.01 in - West 8.1 mph - N/A   Clear
11:00 PM 84.2 °F 83.0 °F 55.4 °F 37% 30.01 in - WSW 8.1 mph - N/A   Clear
11:30 PM 82.4 °F 81.7 °F 55.4 °F 39% 30.01 in - WSW 6.9 mph - N/A   Clear